Change the Weather History Date:

Tuesday, January 7, 2014

  Actual Average Record
Temperature  
Mean Temperature 0 °F -  
Max Temperature 10 °F 35 °F 66 °F (2008)
Min Temperature -9 °F 22 °F -9 °F (2014)
Degree Days  
Heating Degree Days 64    
Moisture  
Dew Point -9 °F    
Average Humidity 66    
Maximum Humidity 72    
Minimum Humidity 58    
Precipitation  
Precipitation 0.00 in - - ()
Sea Level Pressure  
Sea Level Pressure 30.42 in    
Wind  
Wind Speed 15 mph (SW)    
Max Wind Speed 21 mph    
Max Gust Speed 30 mph    
Visibility 9 miles    
Events Snow    
Averages and records for this station are not official NWS values.
T = Trace of Precipitation, MM = Missing Value Source: NWS Daily Summary

Daily Weather History Graph

Daily Weather History Graph

Search for Another Location

Airport or City:

Trip Planner

Search our weather history database for the weather conditions in past years. The results will help you decide how hot, cold, wet, or windy it might be!

Date:

Astronomy

Jan. 07, 2014 Rise Set
Actual Time 7:54 AM EST 5:23 PM EST
Civil Twilight 7:24 AM EST 5:53 PM EST
Nautical Twilight 6:50 AM EST 6:27 PM EST
Astronomical Twilight 6:17 AM EST 6:59 PM EST
Moon 11:42 AM EST (1/7) No Moon Set
Length of Visible Light 10h 29m
Length of Day
9h 28m
Waxing Crescent, 45% of the Moon is Illuminated
Jan 7
Waxing Crescent
Jan 7
First Quarter
Jan 15
Full
Jan 24
Last Quarter
Jan 30
New

Hourly Weather History & Observations

Time (EST) Temp. Windchill Dew Point Humidity Pressure Visibility Wind Dir Wind Speed Gust Speed Precip Events Conditions
12:53 AM -9.0 °F -30.9 °F -17.0 °F 68% 30.36 in 8.0 mi WSW 15.0 mph 25.3 mph 0.00 in   Overcast
1:53 AM -9.0 °F -33.0 °F -17.0 °F 68% 30.38 in 7.0 mi West 18.4 mph 27.6 mph 0.00 in Snow Light Snow
2:53 AM -8.0 °F -30.3 °F -16.1 °F 68% 30.39 in 8.0 mi WSW 16.1 mph 23.0 mph 0.00 in   Overcast
3:53 AM -8.0 °F -30.3 °F -15.0 °F 71% 30.39 in 5.0 mi SW 16.1 mph 26.5 mph 0.00 in   Overcast
4:53 AM -7.1 °F -27.6 °F -14.1 °F 72% 30.38 in 4.0 mi WSW 13.8 mph 21.9 mph 0.00 in   Overcast
5:53 AM -7.1 °F -29.8 °F -14.1 °F 72% 30.39 in 9.0 mi WSW 17.3 mph 25.3 mph 0.00 in   Overcast
6:53 AM -7.1 °F -25.9 °F -14.1 °F 72% 30.41 in 8.0 mi WSW 11.5 mph 21.9 mph N/A   Overcast
7:53 AM -6.0 °F -26.3 °F -13.0 °F 72% 30.43 in 9.0 mi WSW 13.8 mph - N/A   Mostly Cloudy
8:42 AM -5.8 °F -27.5 °F -13.0 °F 71% 30.35 in 10.0 mi SW 16.1 mph 23.0 mph N/A   Scattered Clouds
8:53 AM -5.1 °F -27.2 °F -13.0 °F 69% 30.44 in 10.0 mi SW 17.3 mph 25.3 mph N/A   Partly Cloudy
9:23 AM -4.0 °F -26.4 °F -11.2 °F 71% 30.38 in 10.0 mi SW 18.4 mph 24.2 mph N/A   Mostly Cloudy
9:53 AM -4.0 °F -27.0 °F -11.9 °F 69% 30.48 in 9.0 mi SW 19.6 mph 28.8 mph 0.00 in   Overcast
10:53 AM -2.0 °F -25.0 °F -11.0 °F 66% 30.49 in 10.0 mi SW 20.7 mph 29.9 mph 0.00 in Snow Light Snow
11:01 AM -0.4 °F -22.3 °F -9.4 °F 66% 30.40 in 9.0 mi WSW 19.6 mph 27.6 mph 0.00 in Snow Light Snow
11:53 AM 1.0 °F -18.7 °F -9.0 °F 63% 30.45 in 10.0 mi WSW 16.1 mph 26.5 mph 0.00 in   Scattered Clouds
12:53 PM 3.0 °F -17.3 °F -8.0 °F 60% 30.42 in 10.0 mi SW 18.4 mph - N/A   Scattered Clouds
1:53 PM 3.9 °F -15.6 °F -7.1 °F 60% 30.43 in 10.0 mi West 17.3 mph 26.5 mph N/A   Partly Cloudy
2:53 PM 5.0 °F -14.2 °F -7.1 °F 58% 30.43 in 10.0 mi WSW 17.3 mph 26.5 mph N/A   Mostly Cloudy
3:53 PM 5.0 °F -10.8 °F -6.0 °F 61% 30.43 in 10.0 mi SW 11.5 mph - N/A   Mostly Cloudy
4:53 PM 6.1 °F -12.8 °F -6.0 °F 58% 30.43 in 10.0 mi WSW 17.3 mph - N/A   Partly Cloudy
5:53 PM 7.0 °F -6.6 °F -5.1 °F 58% 30.41 in 10.0 mi SW 9.2 mph - N/A   Partly Cloudy
6:53 PM 8.1 °F -7.0 °F -4.0 °F 58% 30.43 in 10.0 mi SW 11.5 mph - N/A   Overcast
7:53 PM 8.1 °F -4.3 °F -2.9 °F 61% 30.43 in 10.0 mi SSW 8.1 mph - N/A   Overcast
8:53 PM 9.0 °F -5.9 °F -0.9 °F 64% 30.43 in 10.0 mi SSW 11.5 mph - N/A   Overcast
9:53 PM 10.0 °F -5.2 °F -0.9 °F 61% 30.44 in 10.0 mi SW 12.7 mph - N/A   Overcast
10:53 PM 10.0 °F -2.9 °F 1.9 °F 70% 30.44 in 10.0 mi SSW 9.2 mph - N/A   Overcast
11:53 PM 10.0 °F -3.7 °F 1.9 °F 70% 30.43 in 10.0 mi SSW 10.4 mph - N/A   Mostly Cloudy